铱星星座 152星 (IRIDIUM 152)

导读

IRIDIUM 152(铱星152)是美国发射的第二代铱星星座通信卫星,于2018年5月22日发射入轨,属于全球覆盖低轨道卫星移动通信系统组成部分。它运行于近780千米的近极地轨道,可支持全球任意地点的语音、数据通信服务,配备星间链路,设计寿命约10年,承担着补充完善第二代铱星星座全球无缝通信覆盖的功能,服务商业与美国军方通信需求。

基本信息
目录编号:
43479
目录名称:
IRIDIUM 152
国际标识:
2018-047D
轨道中心:
EARTH
卫星名称:
铱星星座 152星
卫星全名:
铱星星座 152星 (IRIDIUM 152)
卫星状态:
在轨 (已飞行2988 天)
发射日期:
2018-05-22 UTC
国别 :
美国 (US)
星等 :
--
轨道信息
数据来源 国际轨道数据 AOE轨道数据
星历时间 2026-07-27T21:37:18+0800
10小时前
查看轨道信息
2026-07-28T00:00:00+0800
7小时前
查看轨道信息
半长轴 7155.805km 7155.794km
偏心率 0.000206 0.0002247
轨道倾角 86.392° 86.392°
近地点辐角 85.834° 86.312°
升交点赤经 71.442° 71.400°
平近点角 274.309° 65.152°
近地点 776.193km 776.049km
远地点 779.143km 779.265km
周期 100.403分钟 100.403分钟
每日圈数 14.342177 14.342209
详细信息
平衡模式:
三轴稳定
覆盖范围:
全球
运营商:
铱星通信公司
运营商所在国:
美国
制造商(研发单位):
阿莱尼亚宇航公司
制造商所在国:
意大利
使用方式:
暂无
卫星简介
铱星(Iridium)是由共66个运作中的通信卫星组成的卫星通信系统。这个系统原本规划77个通信卫星,所以用原子序数为77的铱元素来命名。铱卫星允许人们使用手持型电子设备进行全球性的语音及数据通讯。该卫星仍在工作。
2D轨道图
3D轨道图
轨道高度分析图
轨道倾角分析图
轨道综合分析图
查看轨道综合分析图